DW3835 Weather Reports


Display with metric or nautical units.
time (UTC)temp
F
wind
direction
speed
MPH
gust
MPH
rain 1hr
in
rain 24hr
in
rain mn
in
humidity
%
barometer
mb
20260506020602 58 78 0.0 2.0 0.00 0.16 0.10 82 1014.2
20260506015536 58 167 0.0 0.0 0.00 0.16 0.10 81 1014.0
20260506013417 59 55 0.0 0.0 0.00 0.16 0.10 82 1013.9
20260506012421 59 181 0.0 4.0 0.00 0.16 0.10 81 1014.0
20260506011349 59 84 0.0 4.0 0.00 0.16 0.10 82 1014.0
20260506010338 59 38 0.0 3.0 0.00 0.16 0.10 82 1014.0
20260506004217 60 173 0.0 3.0 0.00 0.16 0.10 81 1013.9
20260506003205 60 121 0.0 3.0 0.00 0.16 0.10 81 1013.9
20260506002147 60 161 0.0 3.0 0.00 0.16 0.10 81 1013.9
20260506001200 60 296 0.0 5.0 0.00 0.16 0.10 82 1013.7
20260506000150 60 149 0.0 5.0 0.00 0.16 0.10 83 1013.7
20260505235121 60 177 0.0 3.0 0.00 0.16 0.10 83 1013.8
20260505234047 60 184 0.0 3.0 0.00 0.16 0.10 82 1013.8
20260505233036 60 171 0.0 3.0 0.00 0.16 0.10 82 1013.7
20260505232037 60 166 0.0 2.0 0.00 0.16 0.10 82 1013.8
20260505231100 60 88 0.0 2.0 0.00 0.16 0.10 82 1013.8
20260505230114 61 96 0.0 1.0 0.00 0.16 0.10 82 1013.8
20260505225102 60 92 0.0 2.0 0.00 0.16 0.10 83 1013.8
20260505224056 60 150 0.0 3.0 0.00 0.16 0.10 83 1013.8
20260505223041 60 138 0.0 1.0 0.00 0.16 0.10 82 1013.8
20260505222043 61 45 0.0 1.0 0.00 0.16 0.10 83 1013.9
20260505221034 60 138 0.0 5.0 0.00 0.16 0.10 81 1013.8
20260505220042 61 163 0.0 5.0 0.00 0.16 0.10 82 1013.9
20260505215041 61 173 0.0 4.0 0.00 0.16 0.10 81 1013.9
20260505214047 60 195 0.0 4.0 0.00 0.16 0.10 83 1013.9
20260505213027 60 196 0.0 3.0 0.00 0.16 0.10 84 1014.0
20260505210830 60 188 0.0 3.0 0.00 0.16 0.10 85 1014.0
20260505205836 60 154 0.0 4.0 0.00 0.16 0.10 86 1014.0
20260505204847 59 177 0.0 4.0 0.00 0.16 0.10 85 1014.1
20260505203842 59 185 0.0 2.0 0.00 0.16 0.10 85 1014.1
20260505202816 58 146 0.0 0.0 0.00 0.16 0.10 86 1014.1
20260505201840 58 18 0.0 0.0 0.00 0.16 0.10 87 1014.2
20260505200813 58 127 0.0 0.0 0.00 0.16 0.10 87 1014.3
20260505195759 58 186 0.0 3.0 0.00 0.16 0.10 88 1014.2
20260505194756 58 109 0.0 1.0 0.00 0.16 0.10 89 1014.3
20260505193818 58 82 0.0 1.0 0.00 0.16 0.10 89 1014.4
20260505192823 58 114 0.0 0.0 0.00 0.16 0.10 89 1014.4
20260505191750 58 180 0.0 1.0 0.00 0.16 0.10 89 1014.3
20260505190741 58 173 0.0 5.0 0.00 0.16 0.10 88 1014.3
20260505185723 57 218 0.0 2.0 0.00 0.16 0.10 89 1014.1
20260505184708 57 355 0.0 5.0 0.00 0.16 0.10 90 1014.1
20260505183647 57 150 0.0 3.0 0.00 0.16 0.10 90 1014.2
20260505182622 57 192 0.0 0.0 0.00 0.16 0.10 90 1014.2
20260505180444 56 165 0.0 1.0 0.00 0.16 0.10 90 1014.1
20260505175452 56 155 0.0 7.0 0.00 0.16 0.10 91 1014.0
20260505174517 56 124 0.0 1.0 0.00 0.16 0.10 91 1013.9
20260505173453 56 88 0.0 2.0 0.00 0.16 0.10 91 1013.7
20260505172431 56 330 0.0 7.0 0.00 0.16 0.10 91 1013.7
20260505171425 55 253 0.0 1.0 0.00 0.16 0.10 92 1013.7
20260505170439 55 163 0.0 1.0 0.00 0.16 0.10 92 1013.7
20260505165418 55 229 0.0 2.0 0.00 0.16 0.10 92 1013.8
20260505164355 55 349 0.0 0.0 0.00 0.16 0.10 92 1013.7
20260505163335 55 196 0.0 2.0 0.00 0.16 0.10 92 1013.6
20260505162353 55 165 0.0 1.0 0.00 0.16 0.10 92 1013.6
20260505161320 54 156 0.0 2.0 0.00 0.16 0.10 93 1013.6
20260505160323 54 153 0.0 1.0 0.00 0.16 0.10 92 1013.6
20260505153137 54 0 0.0 0.0 0.00 0.16 0.10 92 1013.4
20260505152113 54 355 0.0 1.0 0.00 0.16 0.10 92 1013.3
20260505151134 54 339 0.0 1.0 0.00 0.16 0.10 92 1013.3
20260505150106 54 9 0.0 3.0 0.00 0.16 0.10 92 1013.2
20260505124645 52 119 0.0 0.0 0.00 0.16 0.10 91 1012.6
20260505123710 52 66 0.0 0.0 0.00 0.16 0.10 92 1012.6
20260505121559 52 142 0.0 0.0 0.00 0.16 0.10 91 1012.8
20260505120538 52 169 0.0 0.0 0.00 0.16 0.10 91 1012.8
20260505115552 52 64 0.0 0.0 0.00 0.16 0.10 91 1012.8
20260505114553 52 86 0.0 4.0 0.00 0.16 0.10 91 1012.6
20260505113554 53 104 0.0 0.0 0.00 0.16 0.10 91 1012.5
20260505112555 52 96 0.0 0.0 0.00 0.16 0.10 91 1012.5
20260505111555 52 65 0.0 0.0 0.00 0.16 0.10 91 1012.8
20260505110530 52 63 0.0 0.0 0.00 0.16 0.10 91 1013.0
20260505102209 52 39 0.0 0.0 0.00 0.16 0.10 91 1013.1
20260505101137 52 35 0.0 0.0 0.00 0.16 0.10 91 1013.0
20260505100200 52 117 0.0 0.0 0.00 0.16 0.10 91 1012.6
20260505095151 52 53 0.0 0.0 0.00 0.16 0.10 91 1012.8
20260505094159 52 194 0.0 0.0 0.00 0.16 0.10 91 1013.0
20260505093138 53 107 0.0 0.0 0.00 0.16 0.10 91 1013.2
20260505092150 53 107 0.0 0.0 0.00 0.16 0.10 91 1013.2
20260505091206 53 105 0.0 0.0 0.00 0.16 0.10 91 1013.1
20260505090159 53 105 0.0 0.0 0.00 0.16 0.10 91 1013.3
20260505085138 53 105 0.0 0.0 0.00 0.15 0.09 91 1013.5
20260505084156 53 105 0.0 0.0 0.00 0.15 0.09 91 1013.6
20260505083137 53 105 0.0 0.0 0.04 0.15 0.09 91 1013.5
20260505082135 53 105 0.0 0.0 0.10 0.15 0.09 91 1013.4
20260505081123 53 105 0.0 0.0 0.13 0.13 0.08 91 1013.4
20260505080049 52 105 0.0 0.0 0.04 0.11 0.05 91 1013.5
20260505075049 52 105 0.0 0.0 0.06 0.11 0.05 90 1013.6
20260505074024 52 105 0.0 0.0 0.05 0.10 0.04 90 1013.7
20260505073043 52 105 0.0 0.0 0.05 0.09 0.03 90 1013.6
20260505072108 52 105 0.0 0.0 0.06 0.08 0.02 90 1013.6
20260505071049 52 105 0.0 0.0 0.10 0.06 0.01 89 1013.8
20260505070051 53 105 0.0 0.0 0.00 0.06 0.00 90 1014.0
20260505065031 53 105 0.0 0.0 0.00 0.06 0.06 89 1014.0
20260505061833 52 171 0.0 3.0 0.00 0.04 0.05 89 1013.4
20260505054513 53 272 0.0 0.0 0.00 0.03 0.03 89 1013.4
20260505053514 54 122 0.0 0.0 0.00 0.03 0.03 89 1013.5
20260505052509 54 122 0.0 0.0 0.00 0.03 0.03 89 1013.4
20260505051459 54 123 0.0 0.0 0.00 0.02 0.02 89 1013.5
20260505050443 54 346 0.0 0.0 0.06 0.02 0.02 88 1013.6
20260505035931 56 5 0.0 2.0 0.00 0.00 0.00 83 1013.7
20260505034954 56 345 0.0 0.0 0.00 0.00 0.00 82 1013.5
20260505032918 56 62 0.0 0.0 0.00 0.00 0.00 81 1013.1
20260505031903 56 126 0.0 0.0 0.00 0.00 0.00 80 1013.0
20260505025643 56 32 0.0 0.0 0.00 0.00 0.00 80 1013.0
20260505024708 56 51 0.0 0.0 0.00 0.00 0.00 79 1012.8
20260505022543 57 165 0.0 1.0 0.00 0.00 0.00 80 1012.8